Location: Robert Brownlee Observatory
(34.2308°N, 117.2089°W)
Time: 12:41:31
(UTC-07:00)

Cosmos 1943 - Visible Passes

Search period start: 21 August 2017 00:00
Search period end: 31 August 2017 00:00
Orbit: 832 x 851 km, 71.0° (Epoch: 21 August)

Date Brightness Start Highest point End Pass type
(mag) Time Alt. Az. Time Alt. Az. Time Alt. Az.
21 Aug 5.8 01:08:41 14° NNE 01:08:41 14° NNE 01:09:26 10° NNE visible
21 Aug 5.5 02:50:29 14° NNW 02:50:29 14° NNW 02:51:56 10° NNW visible
22 Aug 5.9 00:54:00 12° NNE 00:54:00 12° NNE 00:54:25 10° NNE visible
22 Aug 5.6 02:35:49 14° NNW 02:35:49 14° NNW 02:37:04 10° NNW visible
23 Aug 6.0 00:39:19 10° NNE 00:39:19 10° NNE 00:39:24 10° NNE visible
23 Aug 5.7 02:21:07 13° NNW 02:21:07 13° NNW 02:22:12 10° NNW visible
24 Aug 5.8 02:06:24 13° NNW 02:06:24 13° NNW 02:07:19 10° NNW visible
25 Aug 5.8 01:51:40 13° NNW 01:51:40 13° NNW 01:52:26 10° N visible
26 Aug 5.9 01:36:54 12° NNW 01:36:54 12° NNW 01:37:32 10° N visible
27 Aug 6.0 01:22:07 12° N 01:22:07 12° N 01:22:38 10° N visible
28 Aug 6.0 01:07:19 12° N 01:07:19 12° N 01:07:43 10° N visible
29 Aug 6.1 00:52:29 11° N 00:52:29 11° N 00:52:48 10° N visible
30 Aug 6.1 00:37:37 11° N 00:37:37 11° N 00:37:53 10° N visible
